Date String (YYYY-MM-DD hh:mm:ss) UTC,Instrument flags,Ambient pressure (hPa),Sample flow (lpm),Bypass flow (lpm),Sample temperature (°C),Ambient temperature (°C),ASC tube jacket temperature (°C),LED temperature (°C),Box temperature (°C),Sample RH (%),Span deviation,Mass concentration (μg/m³),Mass concentration (μg/m³),Mass concentration (μg/m³)
DateTimeUTC,F1_M11,P_M11,Q1_M11,Q2_M11,T1_M11,T2_M11,T3_M11,T4_M11,T5_M11,U1_M11,ZSPAN_M11,X0_M11,X2_M11,X1_M11
2022-08-27 20:00:00,,0822.6,5.00,0.00,29.4,26.8,00.0,38.0,31.3,14.0,0000.0,0008.05,0004.43,0003.99
2022-08-27 20:01:00,,0822.6,4.99,0.00,29.4,26.6,00.0,38.0,31.2,14.0,0000.0,0008.00,0004.42,0003.99
2022-08-27 20:02:00,,0822.6,4.99,0.00,29.4,26.8,00.0,38.0,31.2,14.2,0000.0,0008.15,0004.41,0003.99
2022-08-27 20:03:00,,0822.6,5.00,0.00,29.3,27.1,00.0,37.9,31.0,14.3,0000.0,0007.80,0004.37,0003.98
2022-08-27 20:04:00,,0822.6,5.00,0.00,29.3,27.4,00.0,37.9,31.0,13.8,0000.0,0007.78,0004.35,0003.97
2022-08-27 20:05:00,,0822.6,4.99,0.00,29.3,27.7,00.0,37.9,31.1,13.6,0000.0,0007.75,0004.34,0003.96
2022-08-27 20:06:00,,0822.5,5.02,0.00,29.4,27.9,00.0,37.9,31.2,13.0,0000.0,0007.69,0004.32,0003.96
2022-08-27 20:07:00,,0822.6,5.00,0.00,29.4,28.1,00.0,38.0,31.3,13.0,0000.0,0007.45,0004.29,0003.96
2022-08-27 20:08:00,,0822.6,5.00,0.00,29.4,28.3,00.0,38.0,31.4,13.1,0000.0,0007.72,0004.29,0003.96
2022-08-27 20:09:00,,0822.6,4.99,0.00,29.5,27.5,00.0,38.0,31.3,13.7,0000.0,0008.26,0004.29,0003.96
2022-08-27 20:10:00,,0822.6,5.01,0.00,29.4,26.6,00.0,38.0,31.2,13.7,0000.0,0008.31,0004.27,0003.95
2022-08-27 20:11:00,,0822.5,4.99,0.00,29.4,26.7,00.0,38.0,31.2,13.6,0000.0,0008.14,0004.23,0003.93
2022-08-27 20:12:00,,0822.5,5.00,0.00,29.3,26.9,00.0,37.9,31.1,13.7,0000.0,0008.27,0004.23,0003.92
2022-08-27 20:13:00,,0822.5,5.00,0.00,29.3,27.2,00.0,37.9,31.0,14.0,0000.0,0007.97,0004.22,0003.91
2022-08-27 20:14:00,,0822.4,4.99,0.00,29.3,27.5,00.0,37.9,31.1,13.9,0000.0,0007.97,0004.23,0003.90
2022-08-27 20:15:00,,0822.5,5.00,0.00,29.3,27.8,00.0,37.9,31.2,13.9,0000.0,0008.09,0004.25,0003.89
2022-08-27 20:16:00,,0822.4,4.99,0.00,29.4,28.0,00.0,37.9,31.2,13.3,0000.0,0008.22,0004.27,0003.89
2022-08-27 20:17:00,,0822.4,5.00,0.00,29.4,28.2,00.0,38.0,31.3,13.7,0000.0,0008.40,0004.28,0003.89
2022-08-27 20:18:00,,0822.4,5.01,0.00,29.5,28.1,00.0,38.0,31.4,13.9,0000.0,0008.74,0004.30,0003.89
2022-08-27 20:19:00,,0822.4,5.00,0.00,29.5,27.1,00.0,38.0,31.3,14.1,0000.0,0008.74,0004.33,0003.90
2022-08-27 20:20:00,,0822.4,5.00,0.00,29.4,26.6,00.0,38.0,31.3,14.0,0000.0,0008.32,0004.37,0003.90
2022-08-27 20:21:00,,0822.4,5.00,0.00,29.4,26.8,00.0,38.0,31.2,13.6,0000.0,0008.31,0004.40,0003.91
2022-08-27 20:22:00,,0822.4,5.00,0.00,29.3,27.1,00.0,37.9,31.1,13.2,0000.0,0008.40,0004.43,0003.92
2022-08-27 20:23:00,,0822.4,5.01,0.00,29.3,27.4,00.0,37.9,31.1,13.2,0000.0,0008.33,0004.44,0003.93
2022-08-27 20:24:00,,0822.4,4.99,0.00,29.3,27.7,00.0,37.9,31.2,13.0,0000.0,0008.30,0004.48,0003.95
2022-08-27 20:25:00,,0822.4,5.01,0.00,29.4,27.9,00.0,38.0,31.2,13.0,0000.0,0008.44,0004.52,0003.97
2022-08-27 20:26:00,,0822.4,5.00,0.00,29.4,28.2,00.0,38.0,31.3,13.1,0000.0,0008.44,0004.54,0003.99
2022-08-27 20:27:00,,0822.4,5.00,0.00,29.5,28.3,00.0,38.0,31.4,13.0,0000.0,0008.46,0004.58,0004.00
2022-08-27 20:28:00,,0822.4,5.01,0.00,29.5,27.8,00.0,38.0,31.4,13.0,0000.0,0008.48,0004.61,0004.01
2022-08-27 20:29:00,,0822.4,4.98,0.00,29.4,26.6,00.0,38.0,31.3,13.2,0000.0,0008.45,0004.64,0004.02
2022-08-27 20:30:00,,0822.4,5.01,0.00,29.4,26.6,00.0,38.0,31.2,13.1,0000.0,0008.54,0004.65,0004.04
2022-08-27 20:31:00,,0822.4,4.99,0.00,29.4,26.9,00.0,37.9,31.1,13.1,0000.0,0008.58,0004.68,0004.06
2022-08-27 20:32:00,,0822.4,4.99,0.00,29.3,27.1,00.0,37.9,31.0,13.3,0000.0,0008.51,0004.66,0004.06
2022-08-27 20:33:00,,0822.3,5.00,0.00,29.3,27.4,00.0,37.9,31.1,13.7,0000.0,0008.40,0004.63,0004.06
2022-08-27 20:34:00,,0822.3,4.99,0.00,29.3,27.7,00.0,37.9,31.1,13.3,0000.0,0008.44,0004.65,0004.07
2022-08-27 20:35:00,,0822.2,5.02,0.00,29.4,28.0,00.0,37.9,31.2,13.3,0000.0,0008.58,0004.68,0004.07
2022-08-27 20:36:00,,0822.2,5.00,0.00,29.4,28.2,00.0,38.0,31.3,13.2,0000.0,0008.88,0004.66,0004.06
2022-08-27 20:37:00,,0822.2,5.00,0.00,29.4,28.4,00.0,38.0,31.4,13.6,0000.0,0009.04,0004.67,0004.07
2022-08-27 20:38:00,,0822.2,5.00,0.00,29.5,27.9,00.0,38.0,31.4,13.9,0000.0,0009.21,0004.66,0004.07
2022-08-27 20:39:00,,0822.2,5.00,0.00,29.4,26.7,00.0,38.0,31.3,13.5,0000.0,0009.17,0004.66,0004.06
2022-08-27 20:40:00,,0822.1,5.01,0.00,29.4,26.5,00.0,38.0,31.2,14.3,0000.0,0009.03,0004.64,0004.06
2022-08-27 20:41:00,,0822.1,5.00,0.00,29.4,26.9,00.0,38.0,31.2,14.8,0000.0,0008.65,0004.59,0004.05
2022-08-27 20:42:00,,0822.1,5.00,0.00,29.3,27.1,00.0,38.0,31.1,14.9,0000.0,0008.56,0004.54,0004.02
2022-08-27 20:43:00,,0822.1,5.00,0.00,29.3,27.4,00.0,37.9,31.1,14.4,0000.0,0008.55,0004.52,0004.00
2022-08-27 20:44:00,,0822.1,4.99,0.00,29.3,27.7,00.0,37.9,31.2,14.1,0000.0,0008.93,0004.55,0003.99
2022-08-27 20:45:00,,0822.1,4.99,0.00,29.4,28.0,00.0,38.0,31.2,13.9,0000.0,0009.04,0004.54,0003.97
2022-08-27 20:46:00,,0822.1,5.00,0.00,29.4,28.2,00.0,38.0,31.3,14.1,0000.0,0008.77,0004.48,0003.95
2022-08-27 20:47:00,,0822.1,5.00,0.00,29.5,28.4,00.0,38.0,31.4,13.9,0000.0,0008.25,0004.41,0003.93
2022-08-27 20:48:00,,0822.0,5.00,0.00,29.5,27.5,00.0,38.0,31.4,13.7,0000.0,0007.94,0004.35,0003.91
2022-08-27 20:49:00,,0821.9,4.99,0.00,29.5,26.6,00.0,38.0,31.3,14.1,0000.0,0007.80,0004.28,0003.88
2022-08-27 20:50:00,,0821.9,5.00,0.00,29.4,26.8,00.0,38.0,31.3,13.9,0000.0,0007.74,0004.24,0003.86
2022-08-27 20:51:00,,0821.8,4.99,0.00,29.4,27.1,00.0,38.0,31.2,14.1,0000.0,0007.69,0004.22,0003.84
2022-08-27 20:52:00,,0821.8,5.01,0.00,29.4,27.4,00.0,38.0,31.1,14.3,0000.0,0007.79,0004.23,0003.84
2022-08-27 20:53:00,,0821.8,5.01,0.00,29.4,27.7,00.0,38.0,31.2,14.4,0000.0,0007.88,0004.25,0003.85
2022-08-27 20:54:00,,0822.0,4.99,0.00,29.4,27.9,00.0,38.0,31.3,14.3,0000.0,0008.18,0004.25,0003.85
2022-08-27 20:55:00,,0822.1,4.99,0.00,29.4,28.2,00.0,38.0,31.3,14.2,0000.0,0008.18,0004.22,0003.85
2022-08-27 20:56:00,,0822.2,5.01,0.00,29.5,28.3,00.0,38.0,31.4,14.0,0000.0,0008.03,0004.19,0003.84
2022-08-27 20:57:00,,0821.9,4.99,0.00,29.5,27.5,00.0,38.1,31.4,13.8,0000.0,0008.02,0004.17,0003.84
2022-08-27 20:58:00,,0821.8,5.01,0.00,29.5,26.6,00.0,38.0,31.3,13.4,0000.0,0008.18,0004.24,0003.84
2022-08-27 20:59:00,,0821.8,5.00,0.00,29.4,26.8,00.0,38.0,31.3,13.4,0000.0,0008.28,0004.26,0003.82
